Listing of Statistics for Run1-2020 (Created Sat Mar 28 21:05:09 CDT 2020)
User periods in this interval
02/04/2020 08:00 To 02/10/2020 08:00 144.00 Hours, Delivered Beam: 142.06 Hours, 1 Fault(s),142.06 MTBF, 98.66% of Sched. Time 02/11/2020 08:00 To 02/17/2020 08:00 144.00 Hours, Delivered Beam: 134.71 Hours, 2 Fault(s), 67.35 MTBF, 93.55% of Sched. Time 02/18/2020 08:00 To 02/24/2020 08:00 144.00 Hours, Delivered Beam: 144.00 Hours, 0 Fault(s),144.00 MTBF,100.00% of Sched. Time 02/25/2020 08:00 To 03/02/2020 08:00 144.00 Hours, Delivered Beam: 144.00 Hours, 0 Fault(s),144.00 MTBF,100.00% of Sched. Time 03/03/2020 08:00 To 03/09/2020 08:00 143.00 Hours, Delivered Beam: 140.12 Hours, 1 Fault(s),140.12 MTBF, 97.99% of Sched. Time 03/10/2020 08:00 To 03/16/2020 08:00 144.00 Hours, Delivered Beam: 138.61 Hours, 1 Fault(s),138.61 MTBF, 96.25% of Sched. Time 03/18/2020 08:00 To 03/23/2020 08:00 120.00 Hours, Delivered Beam: 116.78 Hours, 1 Fault(s),116.78 MTBF, 97.31% of Sched. Time 03/24/2020 08:00 To 03/28/2020 21:03 109.05 Hours, Delivered Beam: 103.65 Hours, 3 Fault(s), 34.55 MTBF, 95.05% of Sched. Time
Total Amount of User Time in this interval 1092.01 HoursDelivered Beam 1063.92 Hours
Percentage of Scheduled Time (*) 97.43 %
Mean Time Between Faults (MTBF) 118.21 Hours
Downtime During Period 28.10 Hours
Total integrated Current During This Period 105.74 A-hr
Mean Fill Duration in Period 106.39 Hours
Faults per Day of Delivered Beam 0.20
Total Number of Faults 9
Valid fills Beginning in this Time Interval      
Fill # Start  End Duration
(min: 1.0)
Reason for Fill Termination Length of Downtime Downtime is associated with the end of a fill. The first fill of a period will have any downtime before the fill on the line above.

  0.00
# 1 02/04 08:00 To 02/09 21:42 133.71    S16A:Q3 P.S. fault[PS] 1.93 Swapped supply, conditioned, refilled
# 2 02/09 23:38 To 02/10 07:59 8.36    Int Dump: End of Period 0.00

  0.00
# 3 02/11 08:00 To 02/14 12:43 76.72    Rad.Mon.@10ID door[OTH] 0.68 Investigation, recovery, refill
# 4 02/14 13:24 To 02/15 05:14 15.84    ComEd Power sag [OTH] 8.61 Recovery of multiple problems on multiple machines
# 5 02/15 13:50 To 02/17 07:59 42.15    Int Dump: End of Period 0.00

  0.00
# 6 02/18 08:00 To 02/24 07:59 144.00    Int Dump: End of Period 0.00

  0.00
# 7 02/25 08:00 To 03/02 07:59 144.00    Int Dump: End of Period 0.00

  0.00
# 8 03/03 08:00 To 03/07 12:38 100.65    RTFB Heartbeat Err[CTL] 2.88 Refill, human error 2.2hr-CTL, 0.67 hr-MCR
# 10 03/07 15:31 To 03/09 07:59 39.47    Int Dump: End of Period 0.00

  0.00
# 11 03/10 08:00 To 03/13 12:37 76.62    S40 CC Gauge trip [RF] 5.39 Lost again,21-ID SS close flt;2.89hr-RF,2.89hr-MOM
# 12 03/13 18:00 To 03/16 08:00 61.99    Int Dump: End of Period 0.00

  1.41 Difficulty injecting & storing beam AOP
# 13 03/18 09:24 To 03/21 05:18 67.90    RF4 T/R Nitrogen [RF] 1.81 Adjusted valve, recovered, refilled
# 14 03/21 07:07 To 03/23 07:59 48.88    Int Dump: End of Period 0.00

  0.00
# 15 03/24 08:00 To 03/24 12:15 4.25    0.83
# 16 03/24 13:05 To 03/25 15:59 26.91    2.08
# 17 03/25 18:04 To 03/26 08:25 14.35    2.48
# 18 03/26 10:54 To 03/28 21:02 58.14    Fill Ongoing 0.01
Top-Up Mode Statistics
Target Current Range +/- 2.0, Minimum Injector Downtime = 8.0 minutes Total
Current in Range during Scheduled Topup Time 95.67 %
Current in Range during Delivered Beam Time 98.10 %
Injector Availability 97.86 %
Period Beginning 02/04/2020 08:00
Current in Range 100.00 %
Injector Availability 100.00 %
Period Beginning 02/11/2020 08:00
Current in Range 98.57 %
Injector Availability 98.38 %
Out of Range at: 02/13/2020 07:02:24 to 02/13/2020 07:10:16 : 7.87 minutes
Injector downtime:02/13/2020 06:54:24 to 02/13/2020 07:02:24 : ~ 8.00 minutes
Out of Range at: 02/13/2020 19:53:28 to 02/13/2020 20:30:16 : 36.80 minutes
Injector downtime:02/13/2020 19:48:32 to 02/13/2020 20:30:12 : 41.67 minutes
Out of Range at: 02/14/2020 02:36:24 to 02/14/2020 03:13:44 : 37.33 minutes
Injector downtime:02/14/2020 02:31:28 to 02/14/2020 03:13:40 : 42.20 minutes
Out of Range at: 02/16/2020 04:04:32 to 02/16/2020 04:38:24 : 33.87 minutes
Injector downtime:02/16/2020 03:59:36 to 02/16/2020 04:38:20 : 38.73 minutes
Period Beginning 02/18/2020 08:00
Current in Range 93.55 %
Injector Availability 93.02 %
Out of Range at: 02/18/2020 08:00:16 to 02/18/2020 08:45:04 : 44.80 minutes
Injector downtime:02/18/2020 07:55:20 to 02/18/2020 08:45:00 : 49.67 minutes
Out of Range at: 02/18/2020 09:47:20 to 02/18/2020 09:53:04 : 5.73 minutes
Injector downtime:02/18/2020 09:39:20 to 02/18/2020 09:47:20 : ~ 8.00 minutes
Out of Range at: 02/18/2020 11:14:40 to 02/18/2020 11:37:52 : 23.20 minutes
Injector downtime:02/18/2020 11:09:44 to 02/18/2020 11:37:48 : 28.07 minutes
Out of Range at: 02/18/2020 11:42:08 to 02/18/2020 12:11:52 : 29.73 minutes
Injector downtime:02/18/2020 11:42:12 to 02/18/2020 12:09:36 : 27.40 minutes
Out of Range at: 02/18/2020 12:38:24 to 02/18/2020 12:49:52 : 11.47 minutes
Injector downtime:02/18/2020 12:30:24 to 02/18/2020 12:38:24 : ~ 8.00 minutes
Out of Range at: 02/18/2020 14:00:00 to 02/18/2020 15:17:52 : 77.87 minutes
Injector downtime:02/18/2020 13:55:04 to 02/18/2020 15:17:48 : 82.73 minutes
Out of Range at: 02/18/2020 18:37:28 to 02/18/2020 19:04:56 : 27.47 minutes
Injector downtime:02/18/2020 18:32:32 to 02/18/2020 19:04:52 : 32.33 minutes
Out of Range at: 02/18/2020 23:07:36 to 02/18/2020 23:40:08 : 32.53 minutes
Injector downtime:02/18/2020 23:02:40 to 02/18/2020 23:40:04 : 37.40 minutes
Out of Range at: 02/19/2020 02:47:28 to 02/19/2020 03:22:16 : 34.80 minutes
Injector downtime:02/19/2020 02:42:32 to 02/19/2020 03:22:12 : 39.67 minutes
Out of Range at: 02/20/2020 05:48:40 to 02/20/2020 06:11:12 : 22.53 minutes
Injector downtime:02/20/2020 05:43:44 to 02/20/2020 06:11:08 : 27.40 minutes
Out of Range at: 02/22/2020 03:16:56 to 02/22/2020 03:43:04 : 26.13 minutes
Injector downtime:02/22/2020 03:12:00 to 02/22/2020 03:43:00 : 31.00 minutes
Out of Range at: 02/23/2020 08:18:56 to 02/23/2020 11:26:32 : 187.60 minutes
Injector downtime:02/23/2020 08:14:00 to 02/23/2020 11:25:44 : 191.73 minutes
Out of Range at: 02/23/2020 21:54:16 to 02/23/2020 22:20:56 : 26.67 minutes
Injector downtime:02/23/2020 21:49:20 to 02/23/2020 22:20:52 : 31.53 minutes
Out of Range at: 02/24/2020 00:07:36 to 02/24/2020 00:14:16 : 6.67 minutes
Injector downtime:02/23/2020 23:59:36 to 02/24/2020 00:07:36 : ~ 8.00 minutes
Period Beginning 02/25/2020 08:00
Current in Range 97.60 %
Injector Availability 97.13 %
Out of Range at: 02/25/2020 13:40:32 to 02/25/2020 15:17:28 : 96.93 minutes
Injector downtime:02/25/2020 13:35:36 to 02/25/2020 15:17:24 : 101.80 minutes
Out of Range at: 02/26/2020 00:21:20 to 02/26/2020 00:23:44 : 2.40 minutes
Injector downtime:02/26/2020 00:13:20 to 02/26/2020 00:21:20 : ~ 8.00 minutes
Out of Range at: 02/26/2020 01:18:08 to 02/26/2020 01:21:12 : 3.07 minutes
Injector downtime:02/26/2020 01:10:08 to 02/26/2020 01:18:08 : ~ 8.00 minutes
Out of Range at: 02/26/2020 21:36:00 to 02/26/2020 21:40:40 : 4.67 minutes
Injector downtime:02/26/2020 21:28:00 to 02/26/2020 21:36:00 : ~ 8.00 minutes
Out of Range at: 02/27/2020 02:29:20 to 02/27/2020 02:43:28 : 14.13 minutes
Injector downtime:02/27/2020 02:21:20 to 02/27/2020 02:29:20 : ~ 8.00 minutes
Out of Range at: 02/29/2020 08:09:20 to 02/29/2020 08:45:04 : 35.73 minutes
Injector downtime:02/29/2020 08:04:24 to 02/29/2020 08:42:40 : 38.27 minutes
Out of Range at: 02/29/2020 09:34:08 to 02/29/2020 09:35:36 : 1.47 minutes
Injector downtime:02/29/2020 09:26:08 to 02/29/2020 09:34:08 : ~ 8.00 minutes
Out of Range at: 02/29/2020 17:06:00 to 02/29/2020 17:18:48 : 12.80 minutes
Injector downtime:02/29/2020 17:01:04 to 02/29/2020 17:18:44 : 17.67 minutes
Out of Range at: 03/01/2020 12:00:56 to 03/01/2020 12:07:28 : 6.53 minutes
Injector downtime:03/01/2020 11:52:56 to 03/01/2020 12:00:56 : ~ 8.00 minutes
Out of Range at: 03/01/2020 18:31:04 to 03/01/2020 19:00:08 : 29.07 minutes
Injector downtime:03/01/2020 18:26:08 to 03/01/2020 19:00:04 : 33.93 minutes
Out of Range at: 03/02/2020 00:59:36 to 03/02/2020 01:00:16 : 0.67 minutes
Injector downtime:03/02/2020 00:51:36 to 03/02/2020 00:59:36 : ~ 8.00 minutes
Period Beginning 03/18/2020 08:00
Current in Range 99.81 %
Injector Availability 99.74 %
Out of Range at: 03/22/2020 22:38:00 to 03/22/2020 22:51:20 : 13.33 minutes
Injector downtime:03/22/2020 22:33:04 to 03/22/2020 22:51:16 : 18.20 minutes
Period Beginning 03/24/2020 08:00
Current in Range 99.97 %
Injector Availability 99.87 %
Out of Range at: 03/25/2020 00:15:36 to 03/25/2020 00:17:28 : 1.87 minutes
Injector downtime:03/25/2020 00:07:36 to 03/25/2020 00:15:36 : ~ 8.00 minutes
The information on this page is automatically generated and may contain errors. An official operations statistics page will be posted at the end of each user period.